Regional Weather Roundup
Issued by NWS

Home | Current Version | Previous Version | Graphics & Text | Print | Product List | Glossary On
Versions: 1 2 3 4 5 6 7 8 9 10 11 12 13 14 15 16 17 18 19 20 21 22 23 24 25 26 27 28 29 30 31 32 33 34 35 36 37 38 39 40 41 42 43 44 45 46 47 48 49 50
000
ASUS43 KLOT 300600
RWRIL

ILLINOIS REGIONAL WEATHER ROUNDUP
NATIONAL WEATHER SERVICE CHICAGO/ROMEOVILLE IL
100 AM CDT THU JUL 30 2015

NOTE: "FAIR" INDICATES FEW OR NO CLOUDS BELOW 12,000 FEET WITH NO
SIGNIFICANT WEATHER AND/OR OBSTRUCTIONS TO VISIBILITY.

* THESE STATIONS ARE NOT UNDER NWS QUALITY CONTROL. THEY ALSO MAY NOT
  REPORT WEATHER SUCH AS PRECIPITATION OR FOG.

ILZ001-002-007-009-015-016-024-300700-
NORTHWEST ILLINOIS

CITY           SKY/WX    TMP DP  RH WIND       PRES   REMARKS
MOLINE         CLEAR     66  59  78 SW3       30.09S
6HR MIN TEMP:  65; 6HR MAX TEMP:  82;

STERLING*      CLEAR     64  61  88 W6        30.06S
$$

ILZ003-004-008-010-011-017-018-300700-
NORTH CENTRAL ILLINOIS

CITY           SKY/WX    TMP DP  RH WIND       PRES   REMARKS
ROCKFORD       CLEAR     66  58  75 W8        30.06S
6HR MIN TEMP:  66; 6HR MAX TEMP:  81;

$$

ILZ005-006-012>014-019>023-300700-
NORTHEAST ILLINOIS

CITY           SKY/WX    TMP DP  RH WIND       PRES   REMARKS
CHICAGO-OHARE  CLEAR     70  56  61 W8        30.02S
6HR MIN TEMP:  70; 6HR MAX TEMP:  82;

CHICAGO-MIDWAY CLEAR     74  55  51 W7        30.02S
6HR MIN TEMP:  74; 6HR MAX TEMP:  85;

AURORA         CLEAR     62  57  83 W3        30.05S
6HR MIN TEMP:  62; 6HR MAX TEMP:  79;

LANSING*       CLEAR     68  55  63 W5        30.03F
WAUKEGAN       CLEAR     70  54  56 VRB5      30.00S
6HR MIN TEMP:  70; 6HR MAX TEMP:  80;

DUPAGE AIRPORT CLEAR     67  57  70 W6        30.03S
6HR MIN TEMP:  67; 6HR MAX TEMP:  81;

WHEELING       CLEAR     72  54  53 W6        30.03R
6HR MIN TEMP:  72; 6HR MAX TEMP:  83;

NORTHERLY ISL    N/A     75  54  47 W7          N/A
$$

LMZ740>746-300700-
SOUTHERN LAKE MICHIGAN

STATION/POSITION SKY/WX   TEMP    WIND        PRES    VSBY  WAVE
                          AIR SEA DIR/SP/G                  HT/PER
                          (F)     (DEG/KT/KT) (MB)    (MI)  (FT/S)
HARRISON CRIB              76     280/ 15/ 17   N/A
BURNHAM HARBOR             76     250/  9/ 12   N/A
BURNS HARBOR               74     250/ 10/ 11 1016.9R
MICHIGAN CITY              75     220/ 16/ 18   N/A
MICHIGAN CITY 6N           76 74  260/ 12/ 16   N/A           2/ 4
ST. JOSEPH                 76 74  300/ 14/ 14   N/A           3/ 4
$$

ILZ025>027-034>036-040-047-049-050-058-095>099-300700-
WEST-CENTRAL ILLINOIS

CITY           SKY/WX    TMP DP  RH WIND       PRES   REMARKS
QUINCY         CLEAR     69  62  78 W5        30.14S
MACOMB*        CLEAR     65  63  92 W6        30.14S
$$

ILZ028>032-037-038-041>044-048-051>054-059>061-300700-
CENTRAL ILLINOIS

CITY           SKY/WX    TMP DP  RH WIND       PRES   REMARKS
DECATUR        CLEAR     73  58  59 NW10      30.10S
PEORIA         CLEAR     70  61  73 W5        30.10S
6HR MIN TEMP:  70; 6HR MAX TEMP:  82;

SPRINGFIELD    CLEAR     67  61  81 W6        30.11S
6HR MIN TEMP:  65; 6HR MAX TEMP:  83;

TAYLORVILLE    NOT AVBL
$$

ILZ033-039-045-046-055>057-062-063-300700-
EAST-CENTRAL ILLINOIS

CITY           SKY/WX    TMP DP  RH WIND       PRES   REMARKS
CHAMPAIGN      CLEAR     65  60  84 MISG      30.08F
MATTOON        CLEAR     64  57  78 NW7       30.08S
$$

ILZ079-100>102-300700-
SOUTHWEST ILLINOIS

CITY           SKY/WX    TMP DP  RH WIND       PRES   REMARKS
BELLEVILLE     CLEAR     70  61  72 N1        30.10S
CAHOKIA*       CLEAR     69  62  78 CALM      30.11S
SPARTA*        CLEAR     72  64  76 N3        30.11S
$$

ILZ064>066-069>071-074>076-080>082-084>086-088>090-092>094-300700-
SOUTH-CENTRAL ILLINOIS

CITY           SKY/WX    TMP DP  RH WIND       PRES   REMARKS
CARBONDALE     CLEAR     72  66  81 N3        30.09S
6HR MIN TEMP:  72; 6HR MAX TEMP:  86;

MT. VERNON     CLEAR     68  61  77 CALM      30.10S
SALEM*         CLEAR     70  60  72 N3        30.10S
$$

ILZ067-068-072-073-078-083-087-091-300700-
SOUTHEAST ILLINOIS

CITY           SKY/WX    TMP DP  RH WIND       PRES   REMARKS
LAWRENCEVILLE  CLEAR     70  64  81 NW3       30.07S
HARRISBURG*    PTCLDY    75  65  71 N5        30.09S
ROBINSON*      CLEAR     65  63  93 NW5       30.08S
$$

ABBREVIATIONS USED IN REMARKS
   TC - TEMPERATURE IN CELSIUS
  WCI - WIND CHILL INDEX
   HX - HEAT INDEX
  VSB - VISIBILITY
$$



USA.gov is the U.S. government's official web portal to all federal, state and local government web resources and services.